Location: ???? ??
(36.0534°N, 43.5630°E)
Time: 02:09:22
(UTC+00:00)

Cosmos 2341 Rocket - Pass Details

Date: 18 September 2019
Orbit: 967 x 1005 km, 82.9° (Epoch: 18 October)

Event Time Altitude Azimuth Distance (km) Brightness Sun altitude
Rises 16:40:13 0° 357° (N) 3,683 7.3 -18.9°
Reaches altitude 10° 16:42:47 10° 1° (N) 2,727 6.5 -19.4°
Maximum altitude 16:48:58 62° 82° (E) 1,082 3.9 -20.6°
Enters shadow 16:52:24 27° 154° (SSE) 1,767 5.0 -21.3°
